User: anonymous
Location: Writing-on-Stone Provincial Park
(49.0825°N, 111.6163°W)
Time: 16:52:58
(UTC-06:00)
Language:

BREEZE-M DEB (TANK) - Orbit

View from above orbital plane
View from above orbital plane
View from above satellite
View from above satellite

Ground track
Ground track

The orbit data is extracted from the following two-line orbital elements,

1 29649U 06056B   14109.10781307  .00006050  00000-0  10162-2 0  8845
2 29649 049.5361 353.7098 5426275 164.5656 356.6903 04.93145826130322
Epoch (UTC): 19 April 2014 02:35:15
Eccentricity: 0.5426275
inclination: 49.5361°
perigee height: 290 km
apogee height: 16113 km
right ascension of ascending node: 353.7098°
argument of perigee: 164.5656°
revolutions per day: 4.93145826
mean anomaly at epoch: 356.6903°
orbit number at epoch: 13032

The dashed part of the orbit path shows where the satellite is in the earth's shadow,  

DLR